Regional Weather Roundup
Issued by NWS Midland/Odessa, TX

Skip options and go directly to product.
Home | Oldest Version | Next Version | Current Version | All | Text Only | Save Text | Print | Product List | Glossary On

Skip product version selection by date and time.   
134
ASUS44 KMAF 240601
RWRMAF
MIDLAND AREA WEATHER ROUNDUP
NATIONAL WEATHER SERVICE MIDLAND TX
100 AM CDT SUN JUL 24 2016

...IN SOUTHWEST TEXAS AND SOUTHEAST NEW MEXICO...

CITY           SKY/WX    TMP DP  RH WIND       PRES   REMARKS
ALPINE         CLEAR     80  54  39 S8G16     30.12S
ANDREWS        FAIR      82  56  41 S6        30.01R
ARTESIA        CLEAR     81  48  32 MISG      29.98S
BIG SPRING     CLEAR     83  58  43 E9        29.99R
CARLSBAD       CLEAR     86  54  33 SE9       29.97R
DRYDEN           N/A     87  58  37 E13       29.93R
FORT STOCKTON  CLEAR     84  57  39 SE13      29.97R
GUAD PASS      CLEAR     79  50  36 NE28      30.12S
HOBBS          CLEAR     81  54  39 SE12      30.03R
MARFA          CLEAR     74  53  48 VRB3      30.12R
MIDLAND AIRPK  CLEAR     86  55  33 S12       29.99R
MIDLAND INTL   CLEAR     84  57  39 S7        29.98R
ODESSA         CLEAR     86  55  34 S8        30.00R
PECOS          CLEAR     87  56  34 E14       29.93R
PRESIDIO       FAIR      91  56  30 NE12      29.91S
SEMINOLE       CLEAR     80  54  41 CALM      30.02R
SNYDER           N/A     85  60  41 SE10      29.98R
WINK           CLEAR     85  55  35 SE13      29.95R
$$
...OTHER STATIONS IN TEXAS...

CITY           SKY/WX    TMP DP  RH WIND       PRES   REMARKS
ABILENE        CLEAR     84  63  49 SE13      29.96S
AMARILLO       CLEAR     78  54  43 S12       30.02S
AUSTIN         CLEAR     83  73  72 S7        29.96R
BROWNSVILLE    CLEAR     83  77  82 S10       29.93F
CORPUS CHRISTI PTCLDY    83  77  82 SE12      29.93S
DALLAS FTW     PTCLDY    87  71  58 S8        29.91S
DEL RIO        CLEAR     90  62  39 E10       29.88R
EL PASO        PTCLDY    88  43  20 CALM      29.94R
HOUSTON INT    PTCLDY    83  75  77 S3        29.95S
LUBBOCK        CLEAR     81  58  45 SE13      30.01R
SAN ANGELO     CLEAR     83  59  44 SE8       29.95R
SAN ANTONIO    PTCLDY    82  72  71 SE14      29.98R
WACO           CLEAR     87  68  52 SE7       29.93S
WICHITA FALLS  NOT AVBL
$$
...OTHER LOCATIONS IN NEW MEXICO...

CITY           SKY/WX    TMP DP  RH WIND       PRES   REMARKS
ALAMAGORDO     CLEAR     86  39  19 N5        29.99R
ALBUQUERQUE    CLOUDY    84  48  28 SW10      30.15S
CANNON AFB     CLEAR     75  54  47 SE9       30.06R
CLOVIS         CLEAR     73  52  46 S7        30.07R
HOLLOMAN AFB   NOT AVBL
ROSWELL        CLEAR     79  43  27 S6        29.99R
RUIDOSO          N/A     70  39  32 W5        30.28R
SANTA FE       CLOUDY    69  57  65 W3        30.23R
TRUTH OR CONSE CLEAR     82  45  27 NW7       30.06S
TUCUMCARI      CLEAR     85  44  23 S15       30.02R
$$

USA.gov is the U.S. government's official web portal to all federal, state and local government web resources and services.